EW6494 Weather Reports


Display with metric or nautical units.
time (UTC)temp
F
wind
direction
speed
MPH
gust
MPH
rain 1hr
in
rain 24hr
in
rain mn
in
humidity
%
barometer
mb
20260505124514 53 46 0.0 1.0 0.01 0.02 0.01 94 1014.2
20260505123007 53 340 0.0 1.0 0.00 0.01 0.00 94 1014.3
20260505121508 53 228 0.0 1.0 0.00 0.01 0.00 94 1014.1
20260505120014 53 229 0.0 0.0 0.00 0.01 0.00 94 1014.1
20260505114504 53 230 0.0 0.0 0.00 0.01 0.00 93 1014.0
20260505113003 53 230 0.0 0.0 0.00 0.01 0.00 93 1014.1
20260505111507 53 230 0.0 0.0 0.00 0.01 0.00 93 1014.1
20260505101557 54 216 0.0 2.0 0.00 0.03 0.00 91 1013.7
20260505100058 54 236 0.0 2.0 0.00 0.03 0.00 91 1013.8
20260505094556 54 210 0.0 1.0 0.00 0.03 0.00 91 1013.8
20260505093100 54 221 0.0 1.0 0.00 0.03 0.00 91 1013.7
20260505091606 54 267 0.0 1.0 0.00 0.03 0.00 91 1013.6
20260505090053 54 249 0.0 0.0 0.00 0.03 0.00 91 1013.7
20260505084555 54 167 0.0 1.0 0.00 0.04 0.00 91 1013.7
20260505083058 54 262 0.0 1.0 0.00 0.04 0.00 91 1013.7
20260505081555 54 257 0.0 1.0 0.00 0.04 0.00 91 1013.9
20260505080050 54 192 0.0 1.0 0.00 0.04 0.00 91 1013.9
20260505074548 54 249 0.0 1.0 0.00 0.04 0.00 91 1014.0
20260505073054 54 184 0.0 1.0 0.00 0.04 0.00 91 1014.0
20260505071557 54 105 0.0 1.0 0.00 0.04 0.00 91 1014.0
20260505070048 54 109 0.0 1.0 0.00 0.04 0.00 91 1014.0
20260505064548 54 269 0.0 1.0 0.00 0.05 0.04 91 1013.9
20260505063045 54 283 0.0 1.0 0.00 0.05 0.04 91 1014.0
20260505061548 54 243 0.0 1.0 0.00 0.05 0.04 91 1014.0
20260505060050 54 228 0.0 3.0 0.00 0.05 0.04 91 1014.1
20260505054543 54 236 0.0 2.0 0.00 0.05 0.04 91 1014.1
20260505053043 54 111 1.0 5.0 0.00 0.05 0.04 91 1014.0
20260505051558 54 214 0.0 3.0 0.00 0.05 0.04 90 1014.0
20260505041541 55 215 0.0 2.0 0.00 0.05 0.04 90 1013.6
20260505040041 55 258 0.0 2.0 0.00 0.05 0.04 90 1013.4
20260505034540 55 233 0.0 2.0 0.00 0.05 0.04 89 1013.4
20260505033040 55 208 0.0 4.0 0.00 0.05 0.04 89 1013.2
20260505031544 55 284 1.0 3.0 0.00 0.05 0.04 89 1013.1
20260505030040 55 200 0.0 3.0 0.00 0.05 0.04 88 1012.9
20260505024537 55 195 0.0 4.0 0.00 0.05 0.04 88 1012.9
20260505023038 56 354 0.0 4.0 0.00 0.05 0.04 87 1012.9
20260505021537 56 184 1.0 4.0 0.00 0.05 0.04 86 1012.7
20260505020036 56 205 1.0 3.0 0.00 0.05 0.04 86 1012.8
20260505014536 57 263 1.0 4.0 0.00 0.05 0.04 85 1012.9
20260505013053 57 300 1.0 6.0 0.00 0.05 0.04 84 1013.0
20260505011535 58 233 0.0 3.0 0.00 0.05 0.04 83 1013.1
20260505010035 57 291 3.0 9.0 0.00 0.05 0.04 83 1013.3
20260505004534 59 309 1.0 7.0 0.00 0.05 0.04 81 1013.3
20260505003034 60 311 2.0 8.0 0.00 0.05 0.04 79 1013.3
20260505001533 61 286 3.0 9.0 0.00 0.05 0.04 77 1013.3
20260505000036 60 224 2.0 6.0 0.00 0.05 0.04 78 1013.4
20260504234534 60 212 1.0 6.0 0.00 0.05 0.04 79 1013.4
20260504233030 59 315 2.0 9.0 0.00 0.05 0.04 82 1013.6
20260504231529 60 257 2.0 6.0 0.00 0.05 0.04 79 1013.6
20260504230029 60 325 2.0 8.0 0.00 0.05 0.04 79 1013.6
20260504224529 60 296 3.0 7.0 0.00 0.05 0.04 79 1014.0
20260504223027 60 212 3.0 9.0 0.00 0.05 0.04 77 1014.0
20260504221525 60 278 3.0 7.0 0.00 0.05 0.04 79 1014.1
20260504220037 59 293 2.0 6.0 0.00 0.05 0.04 81 1014.3
20260504214526 60 297 2.0 8.0 0.00 0.05 0.04 81 1014.3
20260504213025 59 259 3.0 10.0 0.00 0.05 0.04 83 1014.2
20260504211532 59 179 2.0 5.0 0.00 0.05 0.04 83 1014.1
20260504210021 58 288 3.0 10.0 0.00 0.05 0.04 84 1014.3
20260504204523 58 280 4.0 10.0 0.00 0.05 0.04 84 1014.3
20260504203026 59 179 4.0 9.0 0.00 0.05 0.04 80 1014.2
20260504201521 59 35 3.0 7.0 0.00 0.05 0.04 82 1014.2
20260504200018 59 239 3.0 9.0 0.00 0.05 0.04 82 1014.2
20260504194517 59 275 3.0 7.0 0.00 0.05 0.04 81 1014.1
20260504193021 59 229 4.0 8.0 0.00 0.05 0.04 82 1014.1
20260504191520 58 286 2.0 10.0 0.00 0.05 0.04 85 1014.1
20260504190014 58 270 4.0 12.0 0.00 0.05 0.04 83 1014.1
20260504184513 58 293 2.0 6.0 0.00 0.05 0.04 85 1014.1
20260504183011 58 288 3.0 8.0 0.00 0.05 0.04 86 1014.1
20260504181514 57 187 2.0 7.0 0.00 0.05 0.04 89 1014.0
20260504180005 55 259 3.0 9.0 0.00 0.05 0.04 92 1014.0
20260504174505 55 311 2.0 10.0 0.00 0.05 0.04 93 1014.0
20260504173004 55 216 1.0 5.0 0.00 0.05 0.04 93 1014.0
20260504171507 55 225 1.0 5.0 0.00 0.05 0.04 92 1013.9